FW6822 Weather Reports


time (UTC)temp
C
wind
direction
speed
KPH
gust
KPH
rain 1hr
cm
rain 24hr
cm
rain mn
cm
humidity
%
barometer
mb
20260506044512 8 336 0.0 4.8 0.00 0.00 0.00 1 1012.5
20260506043007 8 341 0.0 6.4 0.00 0.00 0.00 1 1012.6
20260506041503 8 349 1.6 4.8 0.00 0.00 0.00 1 1012.6
20260506040058 8 41 3.2 6.4 0.00 0.00 0.00 1 1012.8
20260506034612 8 18 1.6 8.0 0.00 0.00 0.00 1 1012.9
20260506033050 8 349 1.6 6.4 0.00 0.00 0.00 1 1013.0
20260506031551 8 340 1.6 6.4 0.00 0.00 0.00 1 1013.1
20260506030043 8 9 1.6 6.4 0.00 0.00 0.00 1 1013.1
20260506024541 8 49 3.2 6.4 0.00 0.00 0.00 1 1013.1
20260506023032 8 44 0.0 1.6 0.00 0.00 0.00 1 1013.2
20260506021528 8 44 0.0 0.0 0.00 0.00 0.00 1 1013.1
20260506020025 8 44 1.6 3.2 0.00 0.00 0.00 1 1013.2
20260506014519 8 44 0.0 3.2 0.00 0.00 0.00 1 1013.2
20260506013019 8 351 0.0 3.2 0.00 0.00 0.00 1 1013.3
20260506011516 8 288 0.0 0.0 0.00 0.00 0.00 1 1013.5
20260506010020 8 288 0.0 4.8 0.00 0.00 0.00 1 1013.5
20260506004505 8 295 1.6 6.4 0.00 0.00 0.00 1 1013.5
20260506003121 8 289 0.0 4.8 0.00 0.00 0.00 1 1013.5
20260506001601 8 275 0.0 1.6 0.00 0.00 0.00 1 1013.6
20260506000053 8 275 0.0 1.6 0.00 0.00 0.00 1 1013.6
20260505234545 8 275 0.0 4.8 0.00 0.00 0.00 1 1013.6
20260505233047 9 122 0.0 0.0 0.00 0.00 0.00 1 1013.7
20260505231536 9 122 0.0 0.0 0.00 0.00 0.00 1 1013.7
20260505230039 9 122 0.0 0.0 0.00 0.00 0.00 1 1013.9
20260505224532 10 122 0.0 1.6 0.00 0.00 0.00 1 1014.0
20260505223023 10 122 0.0 1.6 0.00 0.00 0.00 1 1014.1
20260505221519 10 122 0.0 1.6 0.00 0.00 0.00 1 1014.2
20260505220017 10 119 0.0 1.6 0.00 0.00 0.00 1 1014.2
20260505214512 10 119 0.0 3.2 0.00 0.00 0.00 1 1014.1
20260505213017 10 119 0.0 4.8 0.00 0.00 0.00 2 1014.2
20260505211502 10 103 3.2 6.4 0.00 0.00 0.00 1 1014.2
20260505210058 10 85 0.0 6.4 0.00 0.00 0.00 4 1014.3
20260505204553 10 85 3.2 8.0 0.00 0.00 0.00 8 1014.2
20260505203049 10 109 4.8 9.7 0.00 0.00 0.00 11 1014.2
20260505201551 10 122 3.2 8.0 0.00 0.00 0.00 15 1014.2
20260505200040 10 100 4.8 6.4 0.00 0.00 0.00 18 1014.2
20260505194536 10 99 3.2 6.4 0.00 0.00 0.00 22 1014.1
20260505193032 10 114 3.2 6.4 0.00 0.00 0.00 25 1014.0
20260505191527 11 157 1.6 6.4 0.00 0.00 0.00 17 1013.9
20260505190034 11 89 1.6 9.7 0.00 0.00 0.00 15 1013.8
20260505184518 11 161 3.2 11.3 0.00 0.00 0.00 12 1013.8
20260505183014 11 122 8.0 14.5 0.00 0.00 0.00 12 1013.7
20260505181509 10 146 6.4 12.9 0.00 0.00 0.00 8 1013.7
20260505180005 11 133 6.4 16.1 0.00 0.00 0.00 7 1013.7
20260505174501 11 128 4.8 16.1 0.00 0.00 0.00 5 1013.6
20260505173104 11 105 9.7 16.1 0.00 0.00 0.00 25 1014.0
20260505171600 11 107 3.2 12.9 0.00 0.00 0.00 40 1014.0
20260505170048 11 2 1.6 12.9 0.00 0.00 0.00 50 1013.8
20260505164544 12 237 3.2 12.9 0.00 0.00 0.00 54 1013.9
20260505163040 12 330 6.4 14.5 0.00 0.00 0.00 57 1013.9
20260505161535 12 282 8.0 12.9 0.00 0.00 0.00 60 1013.8
20260505153022 13 235 3.2 9.7 0.00 0.00 0.00 60 1013.7
20260505151524 14 265 4.8 14.5 0.00 0.00 0.00 60 1013.8
20260505124534 13 347 3.2 12.9 0.00 0.00 0.00 61 1014.2
20260505123030 13 96 4.8 16.1 0.00 0.00 0.00 60 1014.2
20260505121531 12 330 4.8 17.7 0.00 0.00 0.00 60 1014.2
20260505120048 12 273 4.8 20.9 0.00 0.00 0.00 60 1014.3
20260505114517 12 249 8.0 20.9 0.00 0.00 0.00 60 1014.4
20260505113013 11 303 6.4 17.7 0.00 0.00 0.00 60 1014.6
20260505111509 11 321 9.7 17.7 0.00 0.00 0.00 59 1014.6
20260505101553 11 291 11.3 25.7 0.00 0.00 0.00 61 1014.7
20260505100047 11 337 12.9 29.0 0.00 0.00 0.00 61 1014.7
20260505094542 12 282 8.0 20.9 0.00 0.00 0.00 56 1014.7
20260505093041 12 159 4.8 20.9 0.00 0.00 0.00 55 1014.8
20260505091533 12 331 8.0 20.9 0.00 0.00 0.00 54 1014.9
20260505090039 11 279 9.7 17.7 0.00 0.00 0.00 37 1014.8
20260505084525 11 307 3.2 14.5 0.00 0.00 0.00 32 1014.9
20260505083020 11 280 6.4 14.5 0.00 0.00 0.00 33 1014.9
20260505081516 11 331 6.4 17.7 0.00 0.00 0.00 29 1014.9
20260505080011 10 281 8.0 16.1 0.00 0.00 0.00 17 1015.0
20260505074508 10 356 1.6 11.3 0.00 0.00 0.00 7 1015.0
20260505073004 10 311 1.6 9.7 0.00 0.00 0.00 3 1014.9
20260505071602 9 349 6.4 14.5 0.00 0.00 0.00 1 1014.9
20260505070055 8 286 3.2 12.9 0.00 0.00 0.00 1 1015.0
20260505064550 8 299 4.8 14.5 0.00 0.00 0.00 1 1014.9
20260505063046 8 303 1.6 9.7 0.00 0.00 0.00 1 1014.9
20260505061550 7 292 4.8 12.9 0.00 0.00 0.00 1 1014.9
20260505060037 7 316 6.4 14.5 0.00 0.00 0.00 1 1014.8
20260505054556 7 298 4.8 9.7 0.00 0.00 0.00 1 1014.9
20260505053032 7 284 1.6 9.7 0.00 0.00 0.00 1 1015.0